Weather History for Hays, KS

Change the Weather History Date:

Saturday, March 22, 2014

  Actual Average Record
Temperature  
Mean Temperature 32 °F -  
Max Temperature 41 °F 56 °F 75 °F (2011)
Min Temperature 21 °F 31 °F 10 °F (2002)
Degree Days  
Heating Degree Days 33    
Moisture  
Dew Point 18 °F    
Average Humidity 58    
Maximum Humidity 80    
Minimum Humidity 28    
Precipitation  
Precipitation 0.00 in - - ()
Sea Level Pressure  
Sea Level Pressure 30.32 in    
Wind  
Wind Speed 14 mph (NE)    
Max Wind Speed 24 mph    
Max Gust Speed 33 mph    
Visibility 10 miles    
Events      
Averages and records for this station are not official NWS values.
T = Trace of Precipitation, MM = Missing Value Source: NWS Daily Summary

Daily Weather History Graph

Daily Weather History Graph

Search for Another Location

Airport:

Trip Planner

Search our weather history database for the weather conditions in past years. The results will help you decide how hot, cold, wet, or windy it might be!

Date:

Astronomy

Mar. 22, 2014 Rise Set
Actual Time 7:37 AM CDT 7:51 PM CDT
Civil Twilight 7:10 AM CDT 8:17 PM CDT
Nautical Twilight 6:39 AM CDT 8:48 PM CDT
Astronomical Twilight 6:08 AM CDT 9:20 PM CDT
Moon 1:09 AM CDT 11:25 AM CDT
Length of Visible Light 13h 06m
Length of Day
12h 13m
Waning Gibbous, 65% of the Moon is Illuminated
Mar 22
Waning Gibbous
Mar 23
Last Quarter
Mar 30
New
Apr 7
First Quarter
Apr 15
Full

Hourly Weather History & Observations

Time (CDT) Temp. Windchill Dew Point Humidity Pressure Visibility Wind Dir Wind Speed Gust Speed Precip Events Conditions
12:15 AM 37.4 °F 28.9 °F 24.8 °F 60% 30.24 in 10.0 mi NNE 13.8 mph 18.4 mph N/A   Clear
12:35 AM 37.4 °F 28.9 °F 24.8 °F 60% 30.24 in 10.0 mi NNE 13.8 mph - N/A   Clear
12:55 AM 37.4 °F 29.3 °F 24.8 °F 60% 30.24 in 10.0 mi NNE 12.7 mph - N/A   Clear
1:15 AM 35.6 °F 27.5 °F 24.8 °F 65% 30.25 in 10.0 mi NNE 11.5 mph - N/A   Clear
1:35 AM 35.6 °F 26.6 °F 24.8 °F 65% 30.24 in 10.0 mi NNE 13.8 mph - N/A   Partly Cloudy
1:55 AM 35.6 °F 27.1 °F 24.8 °F 65% 30.25 in 10.0 mi NE 12.7 mph - N/A   Scattered Clouds
2:15 AM 35.6 °F 25.2 °F 24.8 °F 65% 30.24 in 10.0 mi NE 18.4 mph - N/A   Partly Cloudy
2:35 AM 35.6 °F 26.2 °F 24.8 °F 65% 30.25 in 10.0 mi NE 15.0 mph - N/A   Clear
2:55 AM 35.6 °F 27.1 °F 24.8 °F 65% 30.24 in 10.0 mi NE 12.7 mph - N/A   Clear
3:15 AM 33.8 °F 24.8 °F 24.8 °F 70% 30.24 in 10.0 mi NE 12.7 mph - N/A   Clear
3:35 AM 33.8 °F 25.8 °F 23.0 °F 65% 30.26 in 10.0 mi NE 10.4 mph 16.1 mph N/A   Scattered Clouds
3:55 AM 33.8 °F 25.8 °F 21.2 °F 60% 30.27 in 10.0 mi NE 10.4 mph - N/A   Partly Cloudy
4:15 AM 33.8 °F 24.3 °F 21.2 °F 60% 30.25 in 10.0 mi NE 13.8 mph - N/A   Partly Cloudy
4:35 AM 32.0 °F 22.5 °F 21.2 °F 64% 30.25 in 10.0 mi NE 12.7 mph 18.4 mph N/A   Clear
4:55 AM 30.2 °F 21.9 °F 21.2 °F 69% 30.25 in 10.0 mi NE 9.2 mph - N/A   Clear
5:15 AM 30.2 °F 19.8 °F 21.2 °F 69% 30.26 in 10.0 mi NE 13.8 mph 20.7 mph N/A   Clear
5:35 AM 28.4 °F 18.0 °F 19.4 °F 69% 30.27 in 10.0 mi NE 12.7 mph - N/A   Clear
5:55 AM 28.4 °F 19.1 °F 19.4 °F 69% 30.27 in 10.0 mi NE 10.4 mph - N/A   Clear
6:15 AM 28.4 °F 18.5 °F 19.4 °F 69% 30.28 in 10.0 mi NNE 11.5 mph - N/A   Clear
6:35 AM 28.4 °F 19.1 °F 19.4 °F 69% 30.28 in 10.0 mi NE 10.4 mph - N/A   Clear
6:55 AM 26.6 °F 17.5 °F 19.4 °F 74% 30.28 in 10.0 mi NE 9.2 mph - N/A   Clear
7:15 AM 26.6 °F 17.5 °F 19.4 °F 74% 30.29 in 10.0 mi NE 9.2 mph - N/A   Scattered Clouds
7:35 AM 26.6 °F 18.2 °F 17.6 °F 69% 30.30 in 10.0 mi NE 8.1 mph - N/A   Partly Cloudy
7:55 AM 26.6 °F 17.5 °F 19.4 °F 74% 30.31 in 10.0 mi NE 9.2 mph - N/A   Clear
8:15 AM 26.6 °F 17.5 °F 19.4 °F 74% 30.31 in 10.0 mi NE 9.2 mph - N/A   Clear
8:35 AM 28.4 °F 16.6 °F 19.4 °F 69% 30.33 in 10.0 mi NE 16.1 mph - N/A   Scattered Clouds
8:55 AM 28.4 °F 17.5 °F 19.4 °F 69% 30.34 in 10.0 mi ENE 13.8 mph - N/A   Overcast
9:15 AM 30.2 °F 19.3 °F 19.4 °F 64% 30.35 in 10.0 mi NE 15.0 mph - N/A   Overcast
9:35 AM 30.2 °F 18.9 °F 19.4 °F 64% 30.35 in 10.0 mi NE 16.1 mph - N/A   Overcast
9:55 AM 30.2 °F 18.9 °F 19.4 °F 64% 30.34 in 10.0 mi NE 16.1 mph - N/A   Overcast
10:15 AM 30.2 °F 19.3 °F 19.4 °F 64% 30.34 in 10.0 mi ENE 15.0 mph - N/A   Overcast
10:35 AM 30.2 °F 18.9 °F 19.4 °F 64% 30.34 in 10.0 mi NE 16.1 mph - N/A   Overcast
10:55 AM 32.0 °F 20.5 °F 19.4 °F 60% 30.33 in 10.0 mi ENE 18.4 mph - N/A   Mostly Cloudy
11:15 AM 35.6 °F 25.9 °F 21.2 °F 56% 30.33 in 10.0 mi ENE 16.1 mph 20.7 mph N/A   Mostly Cloudy
11:35 AM 33.8 °F 23.5 °F 19.4 °F 56% 30.33 in 10.0 mi ENE 16.1 mph 24.2 mph N/A   Mostly Cloudy
11:55 AM 35.6 °F 25.5 °F 19.4 °F 52% 30.33 in 10.0 mi NE 17.3 mph 26.5 mph N/A   Mostly Cloudy
12:15 PM 35.6 °F 25.9 °F 19.4 °F 52% 30.33 in 10.0 mi NE 16.1 mph 25.3 mph N/A   Mostly Cloudy
12:35 PM 35.6 °F 25.9 °F 19.4 °F 52% 30.32 in 10.0 mi ENE 16.1 mph 23.0 mph N/A   Scattered Clouds
12:55 PM 37.4 °F 28.5 °F 19.4 °F 48% 30.31 in 10.0 mi ENE 15.0 mph 19.6 mph N/A   Clear
1:15 PM 37.4 °F 28.2 °F 19.4 °F 48% 30.30 in 10.0 mi ENE 16.1 mph 21.9 mph N/A   Clear
1:35 PM 39.2 °F 31.2 °F 19.4 °F 45% 30.30 in 10.0 mi NE 13.8 mph 21.9 mph N/A   Clear
1:55 PM 39.2 °F 30.5 °F 17.6 °F 42% 30.29 in 10.0 mi NNE 16.1 mph 24.2 mph N/A   Clear
2:15 PM 39.2 °F 30.2 °F 17.6 °F 42% 30.29 in 10.0 mi ENE 17.3 mph 24.2 mph N/A   Clear
2:35 PM 41.0 °F 32.2 °F 15.8 °F 36% 30.28 in 10.0 mi NE 18.4 mph 24.2 mph N/A   Clear
2:55 PM 39.2 °F 30.2 °F 14.0 °F 36% 30.27 in 10.0 mi NE 17.3 mph 25.3 mph N/A   Clear
3:15 PM 39.2 °F 30.2 °F 12.2 °F 33% 30.27 in 10.0 mi NNE 17.3 mph 21.9 mph N/A   Clear
3:35 PM 39.2 °F 30.2 °F 12.2 °F 33% 30.28 in 10.0 mi NE 17.3 mph 23.0 mph N/A   Clear
3:55 PM 39.2 °F 29.3 °F 12.2 °F 33% 30.27 in 10.0 mi NNE 20.7 mph 27.6 mph N/A   Partly Cloudy
4:15 PM 39.2 °F 29.0 °F 12.2 °F 33% 30.27 in 10.0 mi NNE 21.9 mph 26.5 mph N/A   Clear
4:35 PM 39.2 °F 29.8 °F 10.4 °F 31% 30.28 in 10.0 mi NE 18.4 mph 25.3 mph N/A   Clear
4:55 PM 39.2 °F 29.8 °F 8.6 °F 28% 30.29 in 10.0 mi NNE 18.4 mph 25.3 mph N/A   Clear
5:15 PM 37.4 °F 26.9 °F 8.6 °F 30% 30.30 in 10.0 mi NNE 20.7 mph 25.3 mph N/A   Clear
5:35 PM 35.6 °F 24.8 °F 6.8 °F 30% 30.30 in 10.0 mi NNE 19.6 mph 25.3 mph N/A   Clear
5:55 PM 35.6 °F 24.5 °F 6.8 °F 30% 30.31 in 10.0 mi NE 20.7 mph - N/A   Clear
6:15 PM 35.6 °F 24.2 °F 6.8 °F 30% 30.32 in 10.0 mi NNE 21.9 mph 28.8 mph N/A   Mostly Cloudy
6:35 PM 32.0 °F 18.9 °F 8.6 °F 38% 30.34 in 10.0 mi NNE 24.2 mph 33.4 mph N/A   Overcast
6:55 PM 30.2 °F 17.1 °F 12.2 °F 47% 30.36 in 10.0 mi NNE 21.9 mph 31.1 mph N/A   Overcast
7:15 PM 28.4 °F 14.4 °F 12.2 °F 51% 30.39 in 10.0 mi North 23.0 mph 29.9 mph N/A   Overcast
7:35 PM 28.4 °F 15.1 °F 14.0 °F 55% 30.40 in 10.0 mi North 20.7 mph - N/A   Overcast
7:55 PM 26.6 °F 13.1 °F 14.0 °F 59% 30.42 in 10.0 mi North 19.6 mph - N/A   Overcast
8:15 PM 26.6 °F 13.1 °F 15.8 °F 64% 30.43 in 10.0 mi North 19.6 mph - N/A   Overcast
8:35 PM 26.6 °F 12.7 °F 15.8 °F 64% 30.44 in 10.0 mi North 20.7 mph - N/A   Overcast
8:55 PM 26.6 °F 12.7 °F 15.8 °F 64% 30.44 in 10.0 mi NNE 20.7 mph 24.2 mph N/A   Overcast
9:15 PM 24.8 °F 11.1 °F 15.8 °F 69% 30.43 in 10.0 mi NNE 18.4 mph - N/A   Overcast
9:35 PM 24.8 °F 11.5 °F 15.8 °F 69% 30.45 in 10.0 mi NNE 17.3 mph - N/A   Mostly Cloudy
9:55 PM 24.8 °F 12.4 °F 17.6 °F 74% 30.46 in 10.0 mi NNE 15.0 mph - N/A   Scattered Clouds
10:15 PM 24.8 °F 12.9 °F 15.8 °F 69% 30.46 in 10.0 mi NNE 13.8 mph - N/A   Scattered Clouds
10:35 PM 24.8 °F 14.6 °F 15.8 °F 69% 30.47 in 10.0 mi NNE 10.4 mph - N/A   Mostly Cloudy
10:55 PM 24.8 °F 14.0 °F 15.8 °F 69% 30.48 in 10.0 mi North 11.5 mph - N/A   Partly Cloudy
11:15 PM 23.0 °F 11.1 °F 15.8 °F 74% 30.48 in 10.0 mi North 12.7 mph - N/A   Clear
11:35 PM 23.0 °F 11.7 °F 15.8 °F 74% 30.50 in 10.0 mi North 11.5 mph - N/A   Mostly Cloudy
11:55 PM 21.2 °F 10.1 °F 15.8 °F 80% 30.50 in 10.0 mi North 10.4 mph - N/A   Partly Cloudy